Location: Jerusalem
(31.7667°N, 35.2333°E)
Time: 17:44:48
(UTC+03:00)

ISS - Visible Passes

Search period start: 23 September 2017 00:00
Search period end: 03 October 2017 00:00
Orbit: 401 x 407 km, 51.6° (Epoch: 23 September)

Date Brightness Start Highest point End Pass type
(mag) Time Alt. Az. Time Alt. Az. Time Alt. Az.
23 Sep -0.8 04:21:51 13° ESE 04:21:51 13° ESE 04:22:15 10° ESE visible
23 Sep -2.2 19:16:36 10° S 19:18:54 18° SE 19:19:54 16° ESE visible
23 Sep -0.5 20:52:19 10° WSW 20:52:38 12° W 20:52:38 12° W visible
24 Sep -3.4 19:59:36 10° SW 20:02:48 61° NW 20:03:28 47° N visible
25 Sep -3.7 19:07:19 10° SSW 19:10:30 55° SE 19:13:42 10° NE visible
25 Sep -0.6 20:45:33 10° WNW 20:46:46 13° NW 20:46:46 13° NW visible
26 Sep -1.5 19:51:59 10° W 19:54:39 23° NW 19:57:08 11° NNE visible
27 Sep -2.8 18:59:03 10° WSW 19:02:12 45° NW 19:05:21 10° NNE visible
28 Sep -0.7 19:45:39 10° NW 19:46:38 11° NNW 19:47:37 10° NNW visible
29 Sep -1.2 18:51:37 10° W 18:54:00 19° NW 18:56:25 10° NNE visible
